Voltar ao catálogo

STARLINK-11364

AtivoComunicaçõesVLEO
NORAD 61543·PAYLOAD·🇺🇸 United States

Lançado Oct 15, 2024 de Vandenberg Space Force Base

Loading…

Próximas Passagens (próximas 24 horas)

TLE

AtualizadoSource: CelesTrak SupGP

Época: Sep 15, 2026, 02:12 UTC

1 61543C 24184M   26258.09215278 -.00078476  00000+0 -64625-3 0  2582
2 61543  53.1575  22.7742 0000993  81.7403 235.0967 15.69755702    15

Acompanhe STARLINK-11364 em tempo real com AllMySat

Download on the App Store